This demonstration page uses our WeatherBlox Daily Observations layout. Learn more.

Left ArrowRight Arrow

Hourly Observations for October 5, 2020

Temp ( °F °C ) Dew Point ( °F °C ) Humidity (%) Winds ( mph kmh ) Pressure ( in mb ) Visibility ( mi km ) Precip ( " mm )
12:15 am 00:15 Clear 37 3 37 3 100 100 W 3 6 30.29 1026 10 16 N/A
12:35 am 00:35 Clear 36 2 36 2 100 100 W 3 6 30.29 1026 10 16 N/A
12:55 am 00:55 Clear 37 3 37 3 100 100 W 3 6 30.28 1026 10 16 N/A
1:15 am 01:15 Clear 37 3 37 3 100 100 W 3 6 30.27 1025 10 16 N/A
1:35 am 01:35 Clear 36 2 36 2 100 100 W 3 6 30.28 1025 10 16 N/A
1:55 am 01:55 Clear 37 3 37 3 100 100 WSW 3 6 30.28 1026 10 16 N/A
2:15 am 02:15 Clear 37 3 37 3 100 100 W 5 7 30.28 1026 10 16 N/A
2:35 am 02:35 Clear 34 1 34 1 100 100 W 5 7 30.28 1025 10 16 N/A
2:55 am 02:55 Clear 34 1 34 1 100 100 W 3 6 30.29 1026 10 16 N/A
3:15 am 03:15 Clear 36 2 36 2 100 100 SW 3 6 30.29 1026 10 16 N/A
3:35 am 03:35 Clear 36 2 36 2 100 100 W 3 6 30.29 1026 10 16 N/A
3:55 am 03:55 Clear 34 1 34 1 100 100 W 3 6 30.30 1026 10 16 N/A
4:15 am 04:15 Clear 34 1 34 1 100 100 W 3 6 30.30 1026 10 16 N/A
4:35 am 04:35 Clear 36 2 36 2 100 100 N N/A 30.30 1026 10 16 N/A
4:55 am 04:55 Clear 34 1 34 1 100 100 N N/A 30.31 1026 10 16 N/A
5:15 am 05:15 Clear 36 2 36 2 100 100 N N/A 30.30 1026 10 16 N/A
5:35 am 05:35 Clear 30 -1 30 -1 100 100 N N/A 30.32 1027 10 16 N/A
5:55 am 05:55 Mostly Cloudy 32 undefined 32 undefined 100 100 N N/A 30.33 1027 0 0 N/A
6:15 am 06:15 Mostly Cloudy 32 undefined 32 undefined 100 100 N N/A 30.33 1027 1 1 N/A
6:35 am 06:35 Mostly Cloudy 32 undefined 32 undefined 100 100 N N/A 30.33 1027 1 1 N/A
6:55 am 06:55 Clear 32 undefined 32 undefined 100 100 N N/A 30.33 1027 2 3 N/A
7:15 am 07:15 Mostly Cloudy 32 undefined 32 undefined 100 100 N N/A 30.34 1027 1 2 N/A
7:35 am 07:35 Clear 30 -1 30 -1 100 100 N N/A 30.34 1027 10 16 N/A
7:55 am 07:55 Sunny 28 -2 28 -2 100 100 N N/A 30.34 1028 7 11 N/A
8:15 am 08:15 Mostly Cloudy 30 -1 30 -1 100 100 N N/A 30.34 1027 0 0 N/A
8:35 am 08:35 Mostly Cloudy 30 -1 30 -1 100 100 N N/A 30.35 1028 0 0 N/A
8:55 am 08:55 Mostly Cloudy 34 1 34 1 100 100 N N/A 30.34 1027 1 2 N/A
9:15 am 09:15 Sunny 37 3 37 3 100 100 N N/A 30.34 1028 7 11 N/A
9:35 am 09:35 Sunny 41 5 41 5 100 100 N N/A 30.34 1027 10 16 N/A
9:55 am 09:55 Sunny 45 7 43 6 93 93 N N/A 30.33 1027 10 16 N/A
10:15 am 10:15 Sunny 46 8 45 7 93 93 N N/A 30.33 1027 10 16 N/A
10:35 am 10:35 Sunny 48 9 46 8 94 94 N 3 6 30.32 1027 10 16 N/A
10:55 am 10:55 Sunny 50 10 46 8 88 88 N N/A 30.32 1027 10 16 N/A
11:15 am 11:15 Sunny 52 11 48 9 88 88 N N/A 30.31 1026 10 16 N/A
11:35 am 11:35 Sunny 52 11 46 8 82 82 N N/A 30.31 1026 10 16 N/A
11:55 am 11:55 Sunny 54 12 46 8 77 77 N N/A 30.30 1026 10 16 N/A
12:15 pm 12:15 Sunny 55 13 45 7 67 67 E 6 9 30.29 1026 10 16 N/A
12:35 pm 12:35 Sunny 57 14 45 7 63 63 N N/A 30.29 1026 10 16 N/A
12:55 pm 12:55 Sunny 57 14 43 6 59 59 N N/A 30.29 1026 10 16 N/A
1:15 pm 13:15 Sunny 57 14 43 6 59 59 N N/A 30.28 1025 10 16 N/A
1:35 pm 13:35 Sunny 59 15 43 6 55 55 N N/A 30.26 1025 10 16 N/A
1:55 pm 13:55 Sunny 59 15 43 6 55 55 N N/A 30.25 1025 10 16 N/A
2:15 pm 14:15 Sunny 59 15 41 5 51 51 N N/A 30.24 1024 10 16 N/A
2:35 pm 14:35 Sunny 61 16 43 6 52 52 SW 6 9 30.23 1024 10 16 N/A
2:55 pm 14:55 Sunny 61 16 41 5 48 48 SSW 7 11 30.22 1023 10 16 N/A
3:15 pm 15:15 Sunny 63 17 43 6 49 49 S 7 11 30.20 1023 10 16 N/A
3:35 pm 15:35 Sunny 61 16 43 6 52 52 SSW 8 13 30.20 1023 10 16 N/A
3:55 pm 15:55 Sunny 63 17 43 6 49 49 N N/A 30.19 1022 10 16 N/A
4:15 pm 16:15 Sunny 63 17 41 5 45 45 S 5 7 30.18 1022 10 16 N/A
4:35 pm 16:35 Sunny 63 17 43 6 49 49 SSE 3 6 30.18 1022 10 16 N/A
4:55 pm 16:55 Sunny 63 17 43 6 49 49 SSE 8 13 30.17 1022 10 16 N/A
5:15 pm 17:15 Sunny 63 17 43 6 49 49 S 10 17 30.16 1021 10 16 N/A
5:35 pm 17:35 Sunny 63 17 43 6 49 49 SSW 7 11 30.15 1021 10 16 N/A
5:55 pm 17:55 Sunny 61 16 43 6 52 52 SSW 8 13 30.15 1021 10 16 N/A
6:15 pm 18:15 Sunny 61 16 41 5 48 48 S 7 11 30.14 1021 10 16 N/A
6:35 pm 18:35 Sunny 61 16 41 5 48 48 S 7 11 30.13 1020 10 16 N/A
6:55 pm 18:55 Sunny 59 15 39 4 48 48 S 3 6 30.13 1020 10 16 N/A
7:15 pm 19:15 Sunny 55 13 39 4 55 55 N N/A 30.14 1021 10 16 N/A
7:35 pm 19:35 Clear 54 12 39 4 58 58 N N/A 30.13 1020 10 16 N/A
7:55 pm 19:55 Clear 52 11 39 4 62 62 N N/A 30.14 1021 10 16 N/A
8:15 pm 20:15 Clear 52 11 39 4 62 62 N N/A 30.14 1021 10 16 N/A
8:35 pm 20:35 Clear 52 11 39 4 62 62 SSE 6 9 30.14 1021 10 16 N/A
8:55 pm 20:55 Clear 50 10 39 4 67 67 S 6 9 30.14 1021 10 16 N/A
9:15 pm 21:15 Clear 50 10 39 4 67 67 S 5 7 30.14 1021 10 16 N/A
9:35 pm 21:35 Clear 48 9 39 4 71 71 S 5 7 30.14 1021 10 16 N/A
9:55 pm 21:55 Clear 48 9 39 4 71 71 S 3 6 30.14 1021 10 16 N/A
10:15 pm 22:15 Clear 48 9 39 4 71 71 S 3 6 30.14 1021 10 16 N/A
10:35 pm 22:35 Clear 48 9 39 4 71 71 S 5 7 30.14 1021 10 16 N/A
10:55 pm 22:55 Clear 46 8 39 4 76 76 S 6 9 30.14 1021 10 16 N/A
11:15 pm 23:15 Clear 46 8 39 4 76 76 S 3 6 30.15 1021 10 16 N/A
11:35 pm 23:35 Clear 46 8 39 4 76 76 S 6 9 30.15 1021 10 16 N/A
11:55 pm 23:55 Clear 46 8 39 4 76 76 S 6 9 30.14 1021 10 16 N/A

Powered by AerisWeather